Tracking 28091 objects as of 30-Sep-2023
HD Live streaming from Space Station
objects crossing your sky now

STARLINK-30187

Track STARLINK-30187 now!
10-day predictions
STARLINK-30187 is classified as:


NORAD ID: 57473
Int'l Code: 2023-107S
Perigee: 567.7 km
Apogee: 569.8 km
Inclination: 43.0 °
Period: 95.9 minutes
Semi major axis: 6939 km
RCS: Unknown
Launch date: July 28, 2023
Source: (TBD)
Launch site: AIR FORCE EASTERN TEST RANGE (AFETR)
Your satellite tracking list
Your tracking list is empty




NASA's NSSDC Master Catalog

Two Line Element Set (TLE):
1 57473U 23107S   23273.33218255 -.00000250  00000-0 -36546-5 0  9993
2 57473  43.0009 142.0352 0001475 262.0765  97.9910 15.01716715 11029
Source of the keplerian elements: AFSPC